CYBK

Baker Lake  Airport

Baker Lake, Canada
Issued Wind Visibility Ceiling Temperature Dew Point Humidity Barometer
Nov-19
17:00 UTC
060°
17 KTS
3 miles Broken
2,400' AGL
-6° C
21° F
-7° C
19° F
93% 29.73" Hg
1006.9 hPa
MVFR
Nov-19
16:46 UTC
060°
16 KTS
4 miles Broken
2,400' AGL
-6° C
21° F
-7° C
19° F
93% 29.73" Hg
1007.1 hPa
MVFR
Nov-19
16:37 UTC
060°
15 KTS
Gust 20 KTS
2 1/2 miles Broken
2,400' AGL
-6° C
21° F
-7° C
19° F
93% 29.73" Hg
1007 hPa
IFR
Nov-19
16:00 UTC
050°
15 KTS
1 1/4 miles Broken
2,400' AGL
     
IFR
Nov-19
15:33 UTC
050°
14 KTS
1 miles Broken
2,400' AGL
-6° C
21° F
-8° C
18° F
86% 29.73" Hg
1006.9 hPa
IFR
Nov-19
15:00 UTC
050°
15 KTS
4 miles Broken
2,400' AGL
-6° C
21° F
-8° C
18° F
86% 29.73" Hg
1006.9 hPa
MVFR
Nov-19
14:30 UTC
050°
15 KTS
3 miles Overcast
2,400' AGL
-6° C
21° F
-8° C
18° F
86% 29.73" Hg
1007.1 hPa
MVFR
Nov-19
14:00 UTC
040°
14 KTS
Gust 19 KTS
10 miles Broken
2,500' AGL
-6° C
21° F
-8° C
18° F
86% 29.73" Hg
1007 hPa
MVFR
Nov-19
13:00 UTC
050°
15 KTS
15 miles Broken
8,500' AGL
-6° C
21° F
-8° C
18° F
86% 29.73" Hg
1007.1 hPa
VFR
Nov-19
12:00 UTC
040°
11 KTS
10 miles Broken
1,800' AGL
-6° C
21° F
-7° C
19° F
93% 29.73" Hg
1007.1 hPa
MVFR
Nov-19
11:00 UTC
030°
10 KTS
Gust 15 KTS
15 miles Broken
6,000' AGL
-7° C
19° F
-9° C
16° F
86% 29.73" Hg
1007.1 hPa
VFR
Nov-19
10:00 UTC
040°
12 KTS
Gust 18 KTS
15 miles Broken
6,500' AGL
-6° C
21° F
-8° C
18° F
86% 29.73" Hg
1007.1 hPa
VFR
Nov-19
09:00 UTC
050°
15 KTS
15 miles Broken
6,000' AGL
-6° C
21° F
-8° C
18° F
86% 29.73" Hg
1007 hPa
VFR
Nov-19
08:00 UTC
050°
15 KTS
6 miles Broken
3,200' AGL
-6° C
21° F
-7° C
19° F
93% 29.73" Hg
1007.1 hPa
VFR
Nov-19
07:00 UTC
060°
16 KTS
5 miles Broken
4,800' AGL
-6° C
21° F
-7° C
19° F
93% 29.73" Hg
1007.1 hPa
MVFR
Nov-19
06:00 UTC
070°
17 KTS
Gust 22 KTS
4 miles Broken
3,000' AGL
-5° C
23° F
-7° C
19° F
86% 29.73" Hg
1006.9 hPa
MVFR
Nov-19
05:00 UTC
070°
19 KTS
4 miles Overcast
6,000' AGL
-5° C
23° F
-6° C
21° F
93% 29.72" Hg
1006.7 hPa
MVFR
Nov-19
04:00 UTC
060°
20 KTS
4 miles Broken
3,000' AGL
-5° C
23° F
-6° C
21° F
93% 29.71" Hg
1006.5 hPa
MVFR
Nov-19
03:00 UTC
070°
17 KTS
5 miles Broken
2,500' AGL
-5° C
23° F
-6° C
21° F
93% 29.7" Hg
1006.2 hPa
MVFR
Nov-19
02:00 UTC
080°
16 KTS
Gust 21 KTS
3 miles Overcast
1,000' AGL
-4° C
25° F
-5° C
23° F
93% 29.7" Hg
1005.9 hPa
MVFR
Nov-19
01:44 UTC
080°
18 KTS
3 miles Overcast
1,200' AGL
-4° C
25° F
-5° C
23° F
93% 29.69" Hg
1005.8 hPa
MVFR
Nov-19
01:00 UTC
090°
17 KTS
3 miles Overcast
800' AGL
-4° C
25° F
-5° C
23° F
93% 29.68" Hg
1005.5 hPa
IFR
Nov-19
00:49 UTC
090°
15 KTS
3 miles Overcast
700' AGL
-4° C
25° F
-5° C
23° F
93% 29.68" Hg
1005.5 hPa
IFR
Nov-19
00:00 UTC
080°
17 KTS
Gust 23 KTS
4 miles Overcast
1,000' AGL
-4° C
25° F
-5° C
23° F
93% 29.67" Hg
1005 hPa
MVFR
Nov-18
23:32 UTC
080°
19 KTS
3 miles Overcast
1,000' AGL
-4° C
25° F
-5° C
23° F
93% 29.66" Hg
1004.7 hPa
MVFR
Nov-18
23:00 UTC
080°
21 KTS
5 miles Overcast
1,500' AGL
-4° C
25° F
-6° C
21° F
86% 29.65" Hg
1004.3 hPa
MVFR
Nov-18
22:00 UTC
070°
20 KTS
Gust 26 KTS
5 miles Overcast
1,600' AGL
-5° C
23° F
-6° C
21° F
93% 29.64" Hg
1004 hPa
MVFR
Nov-18
21:00 UTC
070°
22 KTS
2 1/4 miles Overcast
2,300' AGL
-5° C
23° F
-6° C
21° F
93% 29.62" Hg
1003.4 hPa
IFR
Nov-18
20:13 UTC
060°
21 KTS
Gust 27 KTS
1 1/2 miles Overcast
3,000' AGL
-5° C
23° F
-7° C
19° F
86% 29.62" Hg
1003.3 hPa
IFR
Nov-18
20:00 UTC
070°
24 KTS
Gust 31 KTS
3 miles Overcast
3,600' AGL
-5° C
23° F
-7° C
19° F
86% 29.62" Hg
1003.2 hPa
MVFR
Nov-18
19:00 UTC
070°
22 KTS
Gust 28 KTS
3 miles Overcast
3,400' AGL
-6° C
21° F
-7° C
19° F
93% 29.62" Hg
1003.3 hPa
MVFR
Nov-18
18:00 UTC
070°
21 KTS
Gust 27 KTS
4 miles Overcast
4,800' AGL
-6° C
21° F
-8° C
18° F
86% 29.62" Hg
1003.3 hPa
MVFR